Wind_Speed
21 21 20 20 20 20 20 19 19 18 18 17 17 17 16 15 15 15 15 15 15 15 15 15 15 14 14 14 13 13 13 14 14 14 15 16 16 17 17 18 19 20 20 20 19 18 18 18 18 20 21 22 22 22 22 22 22 21 21 21 22 22 23 24 24 25 25 24 23
22 21 21 20 20 20 20 20 19 19 19 18 18 17 16 16 16 15 15 15 15 16 16 16 16 16 15 15 14 14 14 15 15 15 16 16 17 17 18 19 20 20 20 20 19 18 18 18 19 20 21 22 22 23 23 23 22 21 22 22 22 22 22 23 24 24 25 24 24
23 22 21 21 21 21 21 21 21 20 20 19 18 17 16 16 16 16 16 16 16 16 16 17 17 17 16 16 15 15 15 15 16 16 16 17 17 18 19 19 20 20 20 19 18 18 18 18 19 20 21 22 23 23 24 23 22 22 22 23 23 22 22 23 24 24 24 24 24
23 23 22 22 22 22 22 22 21 21 20 19 18 17 17 17 17 17 17 17 17 17 18 18 18 17 17 16 16 15 15 15 16 16 17 17 18 18 19 20 20 20 20 19 18 18 18 18 19 20 21 22 23 23 23 23 22 22 22 23 23 23 23 23 24 24 24 24 25
24 24 23 23 23 23 22 21 21 21 20 18 18 18 18 18 17 17 18 18 18 18 18 18 18 17 17 16 16 16 15 15 16 16 17 18 19 19 20 20 21 20 19 18 18 18 18 18 19 20 21 22 23 23 23 22 22 23 23 23 23 24 24 25 25 25 25 25 26
25 25 24 23 23 22 22 21 21 21 20 19 19 19 19 19 18 18 19 19 19 18 17 17 17 17 16 16 15 15 16 16 16 17 18 18 19 20 20 21 20 20 19 18 18 18 18 18 19 20 21 22 23 23 23 22 22 23 24 25 25 25 25 26 26 26 27 27 28
26 25 24 23 22 22 22 22 21 21 20 20 20 20 20 19 19 19 19 18 18 17 17 16 16 16 15 15 15 15 16 16 17 17 18 19 20 20 21 21 20 19 18 18 18 18 18 19 20 21 22 22 22 23 22 22 23 24 25 26 26 26 26 27 27 27 28 28 29
25 24 24 23 22 22 22 22 22 22 21 22 22 21 20 19 19 18 18 17 17 17 16 15 15 15 14 14 15 16 16 17 18 18 19 20 20 21 21 20 20 19 18 17 17 18 18 19 20 21 22 22 23 23 22 22 23 24 25 26 26 26 27 27 28 28 29 29 30
26 25 24 23 23 22 23 23 23 23 23 23 22 21 20 19 18 18 18 17 17 16 15 15 15 14 14 15 15 16 17 18 18 19 20 20 20 20 20 20 19 19 18 17 17 18 18 19 20 21 21 22 22 22 22 23 23 24 25 26 26 27 27 27 28 29 29 30 30
28 26 25 24 23 23 23 23 23 23 24 23 22 21 20 19 19 18 18 17 16 15 15 15 15 14 15 15 16 17 18 18 19 20 20 20 20 20 20 20 19 19 18 18 17 18 19 20 20 21 21 21 21 22 22 23 23 25 26 26 27 27 28 28 28 29 29 30 31
28 27 26 25 24 23 23 24 24 24 24 24 23 22 21 20 19 18 17 16 16 16 16 15 15 15 15 16 17 18 18 19 20 20 20 20 20 20 20 19 19 19 18 18 18 18 19 20 20 21 21 20 21 21 22 23 23 25 26 27 27 28 29 28 28 29 30 30 31
28 27 26 25 24 24 24 25 25 25 25 25 24 23 21 20 19 18 17 16 17 17 16 15 15 16 16 17 18 18 19 19 20 20 20 20 20 20 19 19 19 19 18 18 18 18 19 20 20 21 21 20 20 21 22 23 24 25 26 27 27 28 29 29 29 29 30 31 32
29 27 26 25 24 24 25 25 26 26 26 26 25 23 22 20 19 17 17 17 17 17 17 16 16 16 17 18 18 18 19 19 19 19 20 20 20 19 19 19 19 19 19 18 18 18 19 20 20 21 21 21 21 21 22 23 25 26 27 28 28 29 29 30 30 30 31 33 34
29 28 27 26 25 25 26 26 27 27 27 26 25 24 22 20 18 18 17 18 18 17 17 17 17 17 18 18 18 18 18 18 19 19 19 19 19 19 19 19 19 19 19 19 18 19 19 20 20 21 21 22 22 23 23 24 25 26 28 28 29 30 30 30 31 32 33 34 35
29 28 27 26 26 26 26 27 28 28 27 27 25 23 21 20 19 18 18 18 18 17 17 17 17 18 17 17 18 18 18 18 18 19 19 20 20 19 20 20 19 19 19 19 19 19 19 20 20 21 22 23 23 24 24 25 26 27 28 29 29 30 30 31 32 33 34 35 36
30 29 28 27 27 27 27 28 28 28 28 27 25 23 21 20 19 18 18 18 18 17 17 18 18 18 17 17 17 17 18 18 19 19 20 20 20 20 20 20 20 20 19 19 19 19 19 20 20 21 22 23 24 25 26 27 27 28 28 28 29 30 31 31 32 33 35 35 36
31 30 29 28 28 28 29 29 29 29 28 27 25 23 21 20 19 18 18 18 18 18 18 18 18 18 17 17 17 17 18 18 19 19 20 20 20 20 20 20 20 20 20 20 20 20 20 20 20 21 22 24 25 26 27 28 28 29 29 29 29 30 31 32 33 34 35 36 36
32 31 30 30 29 29 30 29 29 29 28 27 25 23 21 20 19 19 18 18 18 18 18 18 18 18 17 17 17 17 18 18 19 19 20 20 20 20 20 20 20 20 19 20 20 20 20 20 21 22 23 24 25 26 27 28 28 29 29 29 30 30 31 32 33 34 35 36 36
33 32 32 31 31 30 30 30 29 29 28 27 25 23 22 20 20 19 19 18 18 18 18 18 18 18 18 18 18 17 18 18 18 19 19 19 19 19 20 20 19 19 19 19 19 20 20 21 22 23 24 24 25 26 27 27 28 28 29 30 31 32 33 34 35 35 36 36 37
34 33 33 32 32 31 30 30 29 29 28 26 25 23 22 21 20 19 19 19 18 18 18 18 19 19 18 18 18 17 17 17 17 18 18 18 19 19 19 19 19 19 18 19 19 20 20 21 22 23 24 25 25 26 26 27 28 29 30 31 32 33 34 35 36 36 37 37 37
35 34 34 33 32 31 30 29 29 28 27 26 25 24 23 21 21 20 20 19 18 18 18 19 19 19 18 18 17 16 16 16 16 17 17 18 18 18 18 18 18 18 18 19 19 20 21 22 23 23 24 24 25 25 26 27 28 30 31 32 33 34 35 36 37 37 38 38 38
36 35 33 32 31 30 29 28 28 28 27 26 25 24 23 22 21 21 20 19 19 19 19 19 19 19 18 17 16 15 15 15 15 16 16 17 17 17 17 17 17 18 18 19 20 20 21 22 22 23 23 23 24 25 26 28 30 31 32 34 34 35 36 37 37 38 39 39 39
36 34 33 32 30 29 28 28 28 27 27 27 26 25 24 23 22 21 20 19 19 19 19 19 19 18 17 16 15 14 14 14 14 15 15 16 16 16 16 16 17 18 19 19 20 21 21 22 22 22 22 23 25 26 28 29 31 32 33 34 35 36 37 37 38 39 39 40 40
35 34 33 31 30 29 28 28 28 28 28 27 26 25 24 23 22 21 21 20 20 20 19 19 18 17 16 15 14 13 13 14 14 15 15 15 15 15 16 16 17 18 19 19 20 20 20 20 21 22 23 24 26 28 29 30 31 32 33 34 35 36 37 38 38 39 39 39 39
35 34 32 31 30 29 28 28 28 28 28 28 27 26 25 24 23 22 21 21 20 20 19 19 18 17 15 14 13 13 13 13 14 15 15 15 15 15 16 16 17 18 18 19 20 19 19 19 20 21 23 25 26 27 28 29 30 31 32 33 34 35 36 37 37 38 38 38 38
35 34 33 32 30 29 29 29 29 29 28 28 27 26 25 24 23 22 21 21 20 20 19 18 18 16 15 14 13 13 13 13 13 14 15 15 15 16 16 17 18 18 19 19 20 19 19 19 20 21 22 24 25 27 28 29 30 31 32 32 33 33 34 34 35 35 36 37 38
35 34 33 32 31 30 30 29 29 29 29 28 27 27 26 25 23 22 22 21 20 20 19 19 18 16 15 14 13 13 13 12 13 13 14 16 16 17 17 18 18 19 19 20 19 19 19 20 20 21 22 23 25 26 28 29 30 31 31 31 31 31 31 31 31 33 34 36 37
35 34 33 32 31 31 30 29 29 29 29 29 28 27 26 25 24 23 22 21 21 20 20 19 18 16 15 14 14 13 13 12 13 13 14 15 17 18 18 19 19 19 20 20 19 19 20 20 21 21 21 22 24 25 27 28 29 29 29 29 28 28 27 28 29 31 33 34 35
36 35 34 33 32 31 30 30 30 30 30 29 29 27 26 25 24 23 23 22 21 21 20 19 17 16 15 15 14 13 13 13 13 13 15 16 17 18 18 19 19 20 20 20 20 20 20 20 21 21 21 22 23 24 26 27 28 27 27 26 26 26 27 28 30 31 31 32 32
36 35 34 33 32 31 31 31 31 31 30 29 29 28 27 26 25 24 23 23 22 21 20 18 17 17 16 15 14 13 13 13 13 14 15 16 18 18 19 19 19 20 21 21 20 20 20 20 20 21 22 22 23 24 25 26 26 25 25 25 26 27 29 30 31 31 30 29 30
36 35 34 33 32 32 32 31 31 31 30 30 29 29 28 27 26 25 24 23 22 21 19 18 18 17 17 16 14 14 13 13 13 14 15 17 18 18 19 19 20 21 21 21 20 20 20 20 20 21 22 22 23 24 25 25 25 25 26 27 28 29 30 30 30 28 27 26 26
35 34 34 33 32 32 32 32 31 31 31 31 30 30 29 28 27 26 24 23 22 21 20 19 19 18 17 16 15 14 13 13 14 14 15 16 18 19 19 20 20 21 21 21 20 19 20 20 21 21 22 22 23 24 25 25 26 27 28 28 28 28 28 28 26 25 24 23 23
35 34 34 33 33 32 32 32 31 31 31 31 31 30 29 28 27 26 25 23 22 21 20 20 19 18 17 15 14 14 14 14 14 15 15 16 18 19 20 21 21 22 21 20 19 19 20 20 21 21 22 22 23 23 24 25 27 27 27 27 26 25 24 23 22 21 20 20 20
35 34 34 33 33 32 32 32 32 32 32 32 31 31 30 28 27 26 25 24 22 21 20 20 19 18 17 16 15 14 14 14 14 15 16 16 18 19 20 21 22 21 21 20 20 20 20 20 20 21 21 22 22 23 24 25 26 26 26 25 23 21 20 18 17 17 17 18 19
35 34 34 33 33 32 32 32 32 32 32 32 32 31 30 29 28 27 26 24 22 21 20 20 19 18 17 16 15 14 14 14 14 15 16 17 18 19 21 22 22 22 21 20 20 20 20 20 20 20 21 21 21 22 23 24 25 25 24 22 19 17 16 15 15 15 16 17 17
36 35 34 33 33 32 32 31 31 31 32 32 32 32 31 30 29 28 26 23 22 21 20 20 19 18 17 16 15 14 13 14 14 15 16 17 18 19 21 22 22 22 21 20 19 19 19 19 19 20 20 20 21 22 23 23 24 24 22 19 16 14 13 13 14 15 16 16 16
36 35 34 33 33 32 32 32 31 32 32 33 33 32 31 30 29 27 25 23 22 21 21 20 19 19 18 16 15 14 13 13 14 15 16 17 18 19 21 22 23 22 22 20 19 19 19 19 19 19 19 20 21 22 22 23 23 23 21 16 14 12 12 13 14 15 16 16 16
36 35 34 33 33 32 32 32 32 32 33 34 33 32 31 30 29 28 25 24 23 22 22 21 20 19 17 16 14 13 13 13 14 15 17 17 18 19 21 22 23 23 22 20 19 19 19 18 18 18 18 19 20 22 22 22 23 22 19 14 12 12 12 13 15 15 16 16 16
37 36 35 34 33 32 32 32 33 33 34 33 32 32 31 31 30 28 26 24 23 22 22 21 20 19 17 15 14 13 13 14 14 15 16 17 18 19 20 22 23 22 21 20 19 19 18 18 17 17 17 18 20 21 22 23 23 21 17 13 11 11 13 15 15 15 15 16 17
36 36 35 34 34 33 33 33 34 34 34 33 32 32 31 31 30 27 25 23 23 22 21 21 20 18 16 14 14 14 14 14 15 15 16 17 18 18 20 21 22 22 21 20 19 18 17 16 16 16 17 18 20 21 22 23 23 20 15 11 10 11 14 16 16 15 15 16 17
36 36 35 35 34 34 33 34 34 34 33 33 32 32 31 30 28 27 25 23 22 22 21 20 19 17 16 14 14 14 15 15 16 16 16 17 18 18 19 20 21 21 21 20 18 17 16 15 15 15 16 17 19 20 22 23 22 18 13 10 10 12 14 15 15 15 15 16 17
Wind_Direction
233 234 235 236 237 238 239 240 241 242 243 243 243 244 245 248 251 253 254 255 256 258 261 264 267 269 271 271 271 274 277 281 285 288 290 291 292 293 294 296 298 300 301 301 300 301 302 305 308 310 310 310 311 311 312 313 315 316 317 315 313 311 311 311 312 313 314 314 311
233 235 236 237 238 239 240 241 241 241 241 242 242 244 246 249 251 254 256 256 258 260 263 265 267 269 270 270 270 272 276 280 283 286 287 289 290 291 293 295 297 299 300 299 299 299 301 304 307 308 308 308 309 309 310 312 315 316 316 315 313 312 311 311 312 313 315 314 313
233 235 236 237 238 238 238 239 239 239 240 240 242 244 247 250 253 256 258 259 260 262 263 264 266 267 269 269 269 271 274 278 282 284 286 287 288 290 292 294 296 298 298 298 297 297 299 302 305 306 307 307 308 309 310 311 314 315 314 313 313 312 311 310 311 313 314 313 313
233 235 236 236 237 237 238 238 239 239 239 241 242 245 248 251 255 257 259 261 261 261 262 263 265 267 267 268 268 270 273 277 281 284 286 287 288 289 291 293 295 297 297 296 295 296 298 301 303 304 305 306 307 307 308 311 313 314 313 312 312 311 309 309 311 312 312 311 312
232 234 236 237 238 239 240 240 241 240 240 241 243 245 248 251 254 256 258 259 260 260 262 264 265 265 265 266 268 270 273 277 280 283 285 286 287 289 290 292 294 296 296 295 295 295 297 300 302 302 303 304 305 305 306 309 312 312 312 311 310 310 309 310 311 312 312 311 312
231 234 236 237 238 240 240 241 241 241 241 241 242 245 247 250 252 255 256 258 259 260 261 262 262 262 263 264 267 271 275 278 280 282 284 285 286 288 290 291 294 295 295 294 294 295 297 300 301 301 301 302 302 303 305 308 310 311 311 310 310 310 310 310 311 312 311 311 311
232 234 236 238 238 239 240 240 239 239 239 240 241 243 246 249 252 254 256 257 258 258 257 257 258 259 261 264 268 272 275 278 280 281 282 284 285 287 289 291 293 293 293 294 294 296 297 299 300 300 300 300 301 302 304 307 309 310 310 310 310 310 310 311 312 311 311 310 310
233 235 237 238 238 239 239 239 238 237 237 238 240 243 246 249 252 253 254 254 254 254 254 254 255 257 261 265 269 272 275 278 279 280 281 283 285 287 289 290 291 292 292 293 295 296 298 299 299 299 299 300 300 302 304 307 309 309 308 308 309 310 310 310 310 310 309 308 308
232 234 236 237 238 238 238 238 237 236 236 238 241 244 247 249 251 251 251 250 251 251 252 253 254 257 261 265 269 272 275 277 279 280 281 283 285 287 288 290 290 290 291 293 295 297 298 298 298 297 298 299 300 302 304 306 308 308 308 308 308 308 308 308 308 308 307 306 305
230 232 233 235 236 236 236 236 236 236 237 239 242 244 246 248 248 248 248 249 250 251 251 252 254 258 262 265 269 272 274 276 278 280 281 283 284 286 288 289 289 290 291 293 295 297 298 298 297 297 297 297 299 301 303 305 307 307 307 307 306 306 306 305 305 305 305 304 303
229 231 232 233 234 235 235 234 234 235 237 239 242 244 245 246 246 246 247 249 250 251 251 252 254 258 262 265 268 271 273 276 277 279 281 283 284 286 287 287 288 289 291 292 295 296 297 297 297 297 297 297 299 301 303 305 306 307 306 306 305 305 304 303 303 303 303 302 301
229 231 232 234 234 234 234 233 234 234 236 238 241 242 243 243 244 245 246 248 249 250 251 253 255 259 262 265 268 271 273 275 278 279 281 283 284 285 286 286 287 288 290 292 294 295 296 296 297 297 297 298 300 301 303 305 306 306 306 305 304 303 303 302 302 302 302 302 300
230 231 232 233 234 234 234 233 234 234 236 238 240 241 241 242 242 243 245 247 249 250 252 254 256 259 262 265 268 271 274 276 278 280 281 283 284 285 285 285 286 287 289 291 292 294 295 295 295 296 297 298 300 302 304 305 305 305 305 304 303 302 301 301 301 302 302 302 301
229 231 232 233 233 233 233 233 234 234 236 238 239 240 240 241 241 242 244 246 248 251 253 255 256 259 262 266 269 272 274 276 279 280 282 283 284 285 285 285 286 287 288 290 291 292 293 294 294 295 296 298 300 302 304 305 304 304 303 303 302 301 300 299 300 301 302 302 301
229 230 231 232 232 232 232 233 233 234 236 237 238 239 239 240 240 241 243 246 249 251 254 256 258 260 263 266 269 272 274 277 279 281 282 283 284 284 285 285 286 287 288 289 290 291 291 292 293 294 296 297 299 301 303 304 304 303 302 301 299 299 298 298 299 300 300 300 300
228 229 230 231 231 231 232 232 233 234 235 236 237 238 238 239 240 241 243 246 249 252 254 257 259 261 263 265 268 272 275 277 279 281 282 283 284 285 285 286 286 287 288 289 290 289 290 291 292 294 295 297 298 300 302 303 302 301 300 298 297 296 297 297 298 299 299 299 298
227 228 229 230 230 231 232 232 233 234 235 236 236 237 237 238 239 241 243 246 249 252 255 257 259 262 264 266 268 271 274 277 278 280 282 284 285 286 287 287 287 288 289 289 290 290 290 291 293 294 296 297 299 300 301 301 301 300 298 297 296 296 296 297 298 298 298 298 297
226 228 229 229 230 231 232 232 233 234 234 235 235 236 237 238 239 241 243 246 249 252 255 258 260 262 264 267 268 270 273 276 278 280 282 284 286 287 288 288 288 289 289 290 290 291 292 293 295 296 298 298 299 300 300 300 299 298 297 296 296 297 297 298 298 298 298 297 296
225 227 228 229 230 231 232 232 233 234 235 235 235 236 236 237 239 241 244 246 248 252 255 258 260 262 264 267 269 271 272 275 278 281 283 285 287 288 288 289 289 290 290 291 291 292 294 296 297 299 300 300 300 299 299 298 297 296 296 296 297 297 298 298 299 298 298 297 296
225 227 228 229 230 231 232 232 233 234 235 235 235 236 236 237 239 241 244 246 249 252 255 258 261 263 265 267 269 270 272 275 278 282 284 286 288 289 290 291 292 292 292 293 293 295 296 298 299 300 301 300 299 298 297 297 296 296 296 297 297 298 298 299 299 299 298 298 297
226 228 229 230 230 231 232 233 234 235 235 235 235 235 236 237 239 241 244 247 250 252 255 258 260 262 264 266 268 270 273 276 280 283 286 288 289 291 292 293 294 295 295 295 296 297 298 299 300 300 300 299 298 297 297 296 296 296 297 297 297 298 299 299 299 299 299 298 297
227 228 229 230 231 232 233 234 235 236 235 235 235 235 236 237 239 242 244 248 251 253 255 257 260 261 263 265 267 270 274 277 281 284 287 289 291 293 294 296 297 297 297 298 299 300 300 301 300 300 300 298 297 297 296 296 296 296 297 297 298 299 300 300 300 299 299 298 298
227 228 229 230 231 232 234 235 236 236 235 235 234 235 236 237 239 242 245 248 251 253 255 257 259 260 261 263 266 270 274 278 282 285 288 290 293 295 296 297 298 298 299 300 301 302 302 302 302 301 300 298 297 296 296 295 295 295 296 297 298 299 300 300 300 299 298 297 297
226 227 228 229 230 232 233 234 235 234 234 233 233 234 235 237 239 242 245 248 250 252 254 256 257 258 258 260 263 267 273 278 283 286 289 291 294 296 298 299 299 300 301 303 305 304 302 300 299 299 297 295 294 294 294 294 294 294 295 296 297 298 299 299 299 298 297 296 296
225 226 227 228 229 231 232 233 233 233 232 232 232 233 235 237 239 242 245 247 250 252 253 254 254 254 254 256 259 264 270 276 282 287 291 293 296 298 300 301 301 302 304 306 307 303 297 294 293 292 292 292 292 293 293 294 294 294 294 295 295 296 296 297 297 297 297 297 296
224 225 226 228 229 230 231 232 232 231 231 231 232 233 235 237 239 242 244 247 249 250 251 251 250 250 251 253 257 262 268 274 280 287 291 295 297 300 301 302 303 305 307 309 307 301 295 293 292 292 292 293 294 294 294 294 295 295 295 295 294 294 293 293 295 297 298 299 299
223 224 226 228 229 230 231 231 231 230 230 230 231 233 235 237 239 241 244 246 248 248 248 247 246 246 248 252 256 261 267 273 280 286 291 294 297 300 301 303 305 307 309 310 306 300 296 296 295 295 295 296 296 295 295 295 296 297 297 295 295 294 294 295 296 298 300 301 302
222 224 226 227 229 230 231 231 230 229 229 229 231 232 235 237 239 241 243 245 247 247 246 245 244 244 247 251 255 260 267 273 280 286 290 294 296 299 301 303 306 309 311 309 303 299 298 298 297 297 297 297 297 296 296 297 298 299 298 298 298 298 299 300 301 301 301 301 303
222 224 225 226 228 229 230 230 229 228 228 229 231 232 234 236 238 240 242 244 245 245 244 243 243 244 247 251 255 260 267 273 280 286 291 294 296 298 301 304 307 310 311 309 303 300 300 300 299 298 298 297 298 299 300 300 301 301 301 301 302 303 303 303 302 302 302 304 305
222 223 224 225 227 228 229 229 228 228 228 229 231 232 234 236 238 239 241 242 243 243 243 243 243 244 247 251 256 261 267 273 280 286 291 294 296 298 301 305 308 311 313 311 305 302 301 301 301 300 299 299 300 301 302 302 303 303 303 303 304 304 303 303 303 304 305 308 310
221 222 223 225 226 227 228 229 228 228 228 229 230 232 234 235 237 238 240 241 242 243 242 242 243 245 247 251 256 262 268 274 280 286 290 294 297 300 303 306 309 311 313 312 306 303 303 303 302 302 301 302 303 303 304 305 305 305 305 304 303 303 304 304 305 307 310 313 315
219 221 222 223 225 227 228 229 228 228 228 229 230 232 233 235 236 237 239 240 241 242 241 241 242 244 247 251 256 261 268 274 281 287 291 295 298 301 304 306 308 311 313 311 306 304 304 304 304 304 304 304 304 305 306 307 307 306 305 303 303 304 306 308 309 312 315 318 319
219 220 221 223 224 226 228 228 228 228 228 229 231 232 233 235 236 237 238 239 240 240 240 240 241 243 247 251 257 263 269 275 282 288 293 297 300 302 304 305 308 311 312 309 306 305 306 306 306 306 306 306 307 307 308 308 308 306 304 304 305 308 312 314 316 318 321 322 321
217 219 220 222 224 225 226 227 228 228 229 230 231 232 233 234 235 236 236 237 238 239 239 240 242 244 248 253 258 264 270 277 283 289 294 298 301 302 303 304 308 311 312 308 306 306 307 308 308 308 308 309 309 310 309 309 308 306 305 305 309 314 318 320 323 324 325 325 325
216 218 219 221 223 224 225 226 227 228 228 229 230 232 232 233 233 234 235 236 237 238 239 240 242 245 248 252 256 262 270 277 284 290 295 298 301 302 303 305 309 312 312 309 307 307 309 309 310 310 310 311 311 310 310 309 309 307 307 310 315 320 323 324 326 328 329 330 332
216 217 218 220 221 223 224 225 226 226 227 228 230 231 231 231 232 233 234 235 236 237 238 240 241 244 247 251 255 261 268 277 285 291 295 298 300 302 304 307 310 313 315 313 309 309 310 311 311 312 312 312 311 311 310 310 309 308 309 313 320 324 325 328 331 334 335 337 339
216 217 218 219 220 221 223 224 225 225 227 228 229 230 230 231 231 232 233 234 235 236 237 238 240 243 245 250 255 262 270 279 286 291 294 297 300 303 306 308 310 313 316 315 311 310 311 312 312 313 313 312 311 311 310 311 310 309 310 315 322 326 328 333 339 341 342 344 345
216 218 219 219 219 220 222 223 223 225 226 228 229 230 230 230 231 232 232 232 233 235 236 238 240 242 246 251 258 265 272 278 284 289 293 296 300 303 306 308 310 313 315 315 313 312 312 313 313 313 312 311 311 311 310 310 310 310 310 315 322 327 333 341 346 347 348 350 349
216 218 219 220 220 221 221 222 224 225 227 228 229 229 229 230 230 231 232 232 232 234 236 238 241 244 247 253 260 267 272 277 282 287 291 295 300 304 306 307 308 311 314 315 315 314 313 313 313 313 312 311 311 311 311 311 311 310 310 315 322 330 338 345 349 351 353 355 354
215 217 219 220 221 221 222 223 225 227 228 228 228 228 229 229 230 231 232 232 232 234 237 239 242 245 249 254 261 267 273 277 281 285 290 295 299 303 305 306 307 309 311 313 315 315 313 313 312 312 312 312 311 312 313 313 312 310 310 315 325 335 341 346 350 353 355 357 359
214 217 219 220 221 222 222 224 226 228 229 228 228 229 229 230 231 232 232 231 232 234 236 239 242 246 250 254 260 267 272 277 280 284 289 294 299 302 304 305 306 307 309 311 314 315 313 312 312 312 311 311 311 313 315 315 313 310 310 319 330 338 343 347 351 355 358 359 0
Height
836 837 837 837 838 838 838 838 839 839 839 839 840 840 840 840 840 840 840 841 841 841 841 841 841 841 841 841 841 841 840 840 840 840 839 839 838 838 837 837 836 836 835 834 834 833 832 832 831 830 829 828 827 826 825 824 823 822 821 820 819 818 817 816 815 813 812 812 811
834 835 835 836 836 836 836 837 837 837 837 837 838 838 838 838 838 838 838 839 839 839 839 839 839 839 839 839 839 839 839 839 838 838 838 837 837 836 836 835 835 834 833 833 832 832 831 830 830 829 827 827 825 824 823 822 822 821 819 818 817 817 816 814 813 812 811 810 809
832 833 833 834 834 834 834 834 835 835 836 836 836 837 837 837 837 837 837 837 837 837 837 837 838 838 838 838 838 838 837 837 837 837 836 836 835 835 834 834 833 832 832 831 831 830 829 829 828 827 826 825 824 823 822 821 820 819 818 817 816 815 814 813 812 811 809 808 807
830 831 831 832 832 832 832 832 833 833 834 834 835 835 835 835 835 835 835 835 836 836 836 836 836 836 836 836 836 836 836 836 835 835 834 834 834 833 832 832 832 831 830 830 829 828 828 827 827 826 825 823 822 821 820 819 818 817 817 815 814 814 812 811 810 809 808 807 805
828 828 829 829 830 830 830 831 832 832 832 833 833 833 833 833 833 833 834 834 834 834 834 835 835 835 835 835 835 835 834 834 834 833 833 832 832 832 831 830 830 829 829 828 827 827 826 826 825 824 823 822 821 820 819 818 817 816 815 814 813 812 811 810 809 807 807 805 804
826 827 827 827 828 828 829 829 830 831 831 831 832 831 831 832 832 832 832 832 832 832 833 833 833 833 833 833 833 833 833 833 832 832 832 831 830 830 829 829 828 827 827 827 826 825 825 824 823 822 822 821 819 818 817 817 816 814 813 812 811 810 809 808 807 806 805 803 802
824 825 825 826 826 827 827 828 828 829 829 829 829 829 830 830 830 830 830 831 831 831 831 832 832 832 832 832 832 832 831 831 831 831 830 829 829 828 827 827 826 826 825 825 824 824 823 823 822 821 820 819 818 817 816 815 814 813 812 811 809 808 808 807 805 804 803 802 800
822 823 823 824 825 825 826 826 827 827 827 827 827 827 828 828 829 829 829 829 829 829 830 830 830 830 830 830 830 830 830 829 829 829 828 828 827 827 826 825 825 824 824 823 823 822 822 821 820 819 818 817 817 815 814 814 813 812 810 809 807 807 806 805 804 803 802 800 798
820 821 821 822 822 823 824 824 825 825 825 825 826 826 827 827 827 827 827 827 827 828 828 828 828 828 828 828 828 828 828 828 827 827 827 826 826 825 824 824 823 822 822 822 821 821 820 819 818 817 817 816 815 814 813 812 811 810 808 807 806 805 804 803 802 801 800 798 797
817 818 819 820 820 821 822 822 823 823 823 823 824 824 825 825 825 826 826 826 826 826 826 826 827 827 827 827 827 827 827 826 826 826 825 825 824 823 822 822 821 821 820 820 819 819 818 817 817 816 815 814 813 812 811 811 809 808 807 806 804 803 802 801 800 799 798 796 794
815 816 817 818 818 819 820 821 821 821 822 822 822 823 823 823 824 824 824 824 824 824 824 825 825 825 825 825 825 825 825 825 824 824 823 823 822 822 821 820 820 819 818 818 818 817 817 816 815 814 813 813 812 811 810 809 808 807 805 804 802 801 800 799 798 797 796 794 792
813 814 815 816 817 817 818 819 819 819 820 820 820 821 821 822 822 822 822 823 822 822 823 823 823 823 823 823 823 823 823 823 823 822 822 821 821 820 819 819 818 817 817 816 816 816 815 814 813 812 812 811 810 809 808 807 806 805 803 802 801 800 798 797 796 794 793 792 790
812 812 813 814 815 816 816 817 817 817 818 818 818 819 819 820 820 821 821 821 821 821 821 822 822 822 821 821 821 822 822 821 821 821 820 819 819 818 818 817 817 816 815 815 814 814 813 812 812 811 810 809 808 808 807 806 804 803 802 800 799 797 796 795 793 792 791 789 788
810 811 812 812 813 814 814 815 815 816 816 816 817 817 818 818 819 819 819 819 819 819 820 820 820 820 820 820 820 820 820 820 819 819 818 818 817 817 816 815 815 814 813 813 812 812 812 811 810 809 809 807 807 806 805 804 802 801 800 798 797 795 794 792 791 790 789 787 785
808 809 810 811 812 812 812 813 813 813 814 814 815 816 816 817 817 817 817 817 817 818 818 818 818 818 818 818 818 818 818 818 817 817 817 816 815 815 814 814 813 812 812 811 811 810 810 809 808 808 807 806 805 804 803 802 801 799 798 796 795 793 792 790 789 788 787 785 783
806 807 808 809 809 810 810 811 811 812 812 812 813 814 814 815 815 816 816 816 816 816 816 816 816 816 816 816 816 816 816 816 816 815 815 814 814 813 812 812 811 811 810 810 809 808 808 807 807 806 805 804 803 802 801 800 798 797 795 794 792 791 790 788 787 786 785 783 782
804 805 806 807 807 807 808 808 809 810 810 811 812 812 813 813 814 814 814 814 814 814 814 814 815 815 815 815 815 815 814 814 814 813 813 812 812 811 811 810 810 809 808 808 807 807 806 806 805 804 803 802 801 800 799 797 796 794 793 792 790 789 788 787 786 784 783 782 780
802 802 803 804 805 805 806 807 807 808 808 809 810 811 811 812 812 812 812 812 812 813 813 813 813 813 813 812 812 813 813 812 812 812 811 811 810 810 809 808 808 807 807 806 805 805 804 803 803 802 802 801 799 798 797 795 794 792 791 789 788 787 786 785 783 782 781 780 778
799 800 801 802 802 803 804 804 805 806 807 807 808 809 810 810 810 811 811 811 811 811 811 811 811 811 811 811 811 811 811 811 810 810 810 809 809 808 807 807 806 806 805 804 804 803 802 802 801 800 800 798 797 796 795 793 792 790 788 787 786 785 783 782 781 780 779 777 776
797 797 798 799 800 801 802 802 803 804 805 806 807 807 808 808 809 809 809 809 809 810 810 809 809 809 809 809 809 809 809 809 809 808 808 807 807 806 806 805 804 804 803 803 802 801 800 800 799 798 797 797 795 794 792 791 789 788 786 785 784 782 781 780 778 777 776 774 773
794 795 796 797 798 799 800 801 802 803 804 805 805 806 806 807 807 807 807 807 808 808 808 808 807 807 807 807 807 807 807 807 807 807 806 806 805 805 804 804 803 802 802 801 800 799 799 798 797 796 796 795 793 792 790 789 787 786 784 783 782 780 779 777 776 775 773 772 770
791 792 794 795 796 797 798 800 801 802 802 803 804 804 805 805 805 805 806 806 806 806 806 806 806 806 806 806 806 805 805 805 805 805 805 804 804 803 803 802 801 801 800 799 798 797 797 796 795 794 793 792 791 790 788 787 785 784 782 781 779 778 776 775 773 772 771 769 768
789 791 792 794 795 796 797 798 799 800 801 802 802 802 803 803 803 804 804 804 805 804 804 804 804 804 804 804 804 804 804 803 803 803 803 803 802 802 801 801 800 799 798 797 797 796 795 794 793 792 792 790 789 787 786 785 783 782 780 778 777 775 774 772 771 770 768 767 765
787 789 791 792 793 794 795 797 797 798 799 800 800 801 801 802 802 802 803 803 803 803 802 802 802 802 802 802 802 802 802 802 802 802 801 801 801 800 800 799 798 797 797 796 795 794 793 792 791 791 790 788 787 785 784 782 781 780 778 777 775 773 772 770 769 767 766 764 762
786 787 789 790 791 792 793 795 795 796 797 798 798 799 800 800 800 801 801 801 801 801 801 801 801 801 801 801 801 801 801 800 800 800 800 799 799 799 798 797 797 796 795 794 793 793 792 792 791 790 788 787 786 784 783 782 780 778 777 775 773 772 770 768 766 765 763 762 760
784 786 787 788 789 791 792 792 793 794 795 796 797 797 798 798 799 799 799 799 799 799 800 800 800 800 800 799 799 799 799 799 799 798 798 798 797 797 797 796 795 794 793 792 792 791 791 791 790 789 787 786 785 783 782 780 778 777 775 773 772 770 768 766 764 762 761 760 758
782 784 785 786 787 789 789 790 791 792 793 794 795 795 796 797 797 797 797 797 798 798 798 798 798 798 798 798 797 797 797 797 797 797 797 797 796 795 795 794 793 793 792 791 790 790 789 789 788 787 786 785 783 782 780 778 777 775 773 772 770 768 767 765 763 761 759 757 756
780 782 783 785 786 787 787 788 789 790 791 792 792 793 794 795 796 796 796 796 796 796 796 796 797 797 797 796 796 796 796 796 796 796 795 795 794 794 793 792 792 791 790 790 789 788 788 787 786 786 785 783 782 780 778 777 775 773 772 770 768 767 765 764 762 760 757 756 754
778 780 781 782 783 784 785 787 787 788 788 789 791 792 792 793 793 794 794 794 794 794 794 795 795 795 795 794 794 794 794 794 794 794 794 793 793 792 792 791 790 790 789 788 788 787 786 785 784 784 783 782 780 779 777 775 774 772 770 768 767 766 764 762 761 759 757 755 753
776 778 779 780 781 782 783 784 785 786 787 788 789 790 790 791 792 792 792 792 792 792 793 793 793 793 793 793 792 792 792 792 792 792 792 792 792 791 790 790 789 788 787 787 786 785 784 783 783 782 781 780 779 777 776 774 772 771 769 767 766 764 763 761 759 757 756 754 753
774 776 777 778 779 780 781 782 783 784 785 786 787 787 788 789 789 790 790 790 791 791 792 792 792 792 791 791 791 791 791 791 791 791 791 791 790 789 789 788 787 787 786 785 784 783 783 782 781 780 779 778 777 776 774 772 771 770 768 766 764 763 761 760 758 756 755 754 752
772 773 775 776 777 778 779 780 782 782 783 784 785 786 786 787 787 787 788 789 789 790 790 790 790 790 789 789 789 789 789 789 789 789 789 789 788 788 787 787 786 785 784 784 783 782 781 781 780 779 778 777 776 774 772 771 770 768 766 765 763 762 760 758 757 755 754 753 751
769 771 772 774 775 776 777 779 780 781 782 782 783 783 784 784 785 786 787 787 787 788 788 788 788 788 788 788 788 787 787 788 788 788 788 787 787 787 786 785 784 784 783 782 782 781 780 779 778 777 776 775 774 772 771 770 768 766 765 763 762 760 759 757 756 755 753 752 750
767 769 770 772 773 774 776 777 778 779 780 781 781 781 782 782 783 784 785 785 786 786 786 786 786 786 786 786 786 786 786 786 786 786 786 786 786 785 784 783 783 782 782 781 780 779 778 777 777 776 775 773 772 771 770 768 767 765 763 761 760 759 758 757 755 754 752 751 749
765 767 768 770 771 773 774 775 777 777 778 778 779 779 780 781 781 782 782 783 784 784 784 784 785 785 785 784 784 784 784 784 785 785 785 785 784 783 782 782 781 781 780 780 779 778 777 776 775 774 773 772 771 769 768 767 765 763 761 760 759 758 757 756 754 753 752 750 748
763 765 767 768 769 771 772 774 775 776 776 776 777 777 778 778 779 780 781 782 782 783 783 783 783 783 783 782 782 783 783 783 783 783 783 783 783 782 781 780 779 779 779 778 777 776 775 774 773 772 772 771 769 768 767 765 763 762 760 759 758 757 756 755 753 752 751 749 747
761 763 765 766 768 769 771 772 773 774 774 774 774 775 776 777 777 778 780 781 781 781 781 781 781 781 781 781 781 781 781 782 782 782 782 782 781 781 779 778 777 777 777 776 776 775 774 773 772 771 770 769 768 767 765 764 762 760 759 758 757 756 755 754 752 751 749 748 746
759 762 763 765 766 767 769 770 771 772 772 772 772 773 774 775 776 777 778 779 779 779 779 779 779 779 779 779 780 780 780 780 780 780 780 780 780 779 778 777 776 776 775 775 774 773 772 772 771 770 769 768 767 766 764 762 761 759 757 757 756 755 754 752 751 750 748 747 746
757 760 762 763 765 766 767 768 769 769 769 770 771 772 772 773 774 775 776 777 777 777 777 777 777 778 778 778 778 778 778 778 779 779 779 778 778 778 777 776 775 774 774 773 773 772 771 770 769 769 768 767 766 764 763 761 759 758 757 756 755 754 752 751 750 749 747 746 745
755 758 760 762 763 764 765 766 767 767 767 768 769 770 771 772 772 773 775 775 776 776 776 776 776 776 777 777 777 776 776 777 777 777 777 777 777 777 776 775 774 773 772 772 771 770 769 769 768 767 767 766 765 763 762 760 758 757 755 754 753 752 751 750 749 748 747 745 744
753 756 758 759 761 762 763 764 765 765 766 767 767 768 769 770 771 772 773 774 774 774 774 774 775 775 775 775 775 775 775 775 775 776 776 776 775 775 775 774 773 772 771 771 770 769 768 767 767 767 766 765 763 762 761 759 757 756 754 753 752 751 750 749 748 747 746 744 743